DECAYED

TITAN 3C TRANSTAGE DEB, 2789 (Decayed)

Orbit data source: Space-Track

TITAN 3C TRANSTAGE DEB, 2789 was space debris in LEO originally from a launch on Fri, 15 Oct 1965 UTC launched from the Air Force Eastern Test Range (AFETR). Debris objects in space refer to the collection of defunct objects orbiting the Earth. Examples of debris include non-operational satellites, rocket bodies, and fragments generated from explosions, collisions, or faulty payload assembly.

Not visible in the next 10 days
Identifier
2789, 1965-082KR
Orbit
Decayed
Country
Flag of USUS
Related business
Manufacturer
Unknown
Mission
Decayed spacecraft
Bus & Motor
Unknown
Mass
Unknown
Launch date (UTC)
1965-10-15 (61 years ago)
Launch vehicle
Unknown
Launch site
Air Force Eastern Test Range (AFETR)
Object type
Payload
Rocket body
Debris
Shape & HBR
Unknown shape, 0.1 m
Radar Cross Section
Small (<0.1 m²)

Expand to show TLE details & history
Last TLE update: 6 months ago

TLE from 6 months ago
0 TITAN 3C TRANSTAGE DEB
1 02789U 65082KR  25318.16751908  .01423176  00000-0  75203-2 0  9996
2 02789  32.2566 351.0947 0021342 141.4725 218.7483 15.76572341 48744
Epoch: 2025-11-14T04:01Z
TLE epoch observation values (Epoch: 2025-11-14T04:01:13.648Z)
Latitude
Longitude
-122.72707°
Altitude
349.946 km
Speed
7.695 km/s
True Right ascension
23h 24m 22s
True Declination
0° 00' 00"
Sunlit
Object was in full shadow at epoch
Visualization orbit readout
Latitude
Unknown
Longitude
Unknown
Altitude
Unknown
Speed
Unknown
Apparent Right ascension
Unknown
Apparent Declination
Unknown
Sunlit
N/A
Visualization observer readout
Local Sidereal Time
20:24:33
Azimuth
Unknown
Elevation
Unknown
Doppler factor
Unknown
Orbital elements
Apogee altitude
358.267 km
Perigee altitude
329.575 km
Semi-major axis
6,722.058 km
Eccentricity
0.00213
Inclination
32.2566°
RAAN
351.0947°
Arg. of periapsis
141.4725°
True anomaly
218.59555°
Mean anomaly
218.7483°
Eccentric anomaly
218.67189°
Mean motion
3.93813 °/min
Orbital period
91.41 mins
BSTAR
0.0075203

Documentation

Showing up to 5 results
|